Home   Weather   Talca   Past weeks

Flag for Chile Past Weather in Talca, Chile — Yesterday and Last 2 Weeks

Now
57 °F

Sunny.


Feels Like: 57 °F
Forecast: 50 / 86 °F
Wind: 3 mph from Southwest

Location: Concepcion Airport

Current Time: Dec 8, 2016 at 8:59:52 am

Latest Report: Dec 8, 2016 at 8:00 am


Visibility: 10 mi

Pressure: 29.89 "Hg

Humidity: 88%

Dew Point: 54 °F

Location of TalcaLocation

Past Weather in Talca — Graph

°F

Talca Temperature Yesterday

Maximum temperature yesterday: 72 °F (at 5:00 pm)
Minimum temperature yesterday: 48 °F (at 6:00 am)
Average temperature yesterday: 61 °F

High & Low Weather Summary for the Past Weeks

 TemperatureHumidityPressure
High90 °F (Nov 29, 4:00 pm)100% (Nov 23, 8:00 am)30.18 "Hg (Nov 23, 8:00 am)
Low48 °F (Dec 5, 7:00 am)26% (Nov 29, 4:00 pm)29.77 "Hg (Nov 29, 7:00 pm)
Average62 °F76%30.00 "Hg
* Reported Nov 23 7:00 am — Dec 8 7:00 am, Talca, Weather by CustomWeather, © 2016

Note: Actual official high and low records may vary slightly from our data, if they occured in-between our weather recording intervals... More about our weather records

Advertising

Talca Weather History for the Previous 24 Hours

Scroll right to see more
 ConditionsComfort  
Time TempWeatherWind HumidityBarometerVisibility
7:00 am
Thu, Dec 8
54 °FSunny.5 mph94%29.89 "Hg10 mi
6:00 am54 °FClear.5 mph94%29.89 "Hg10 mi
5:00 am54 °FClear.3 mph94%29.86 "Hg10 mi
4:00 am55 °FClear.6 mph88%29.89 "Hg10 mi
3:00 am55 °FClear.3 mph88%29.89 "Hg10 mi
2:00 am55 °FClear.3 mph88%29.92 "Hg10 mi
1:00 am57 °FClear.5 mph82%29.95 "Hg10 mi
12:00 am59 °FClear.3 mph77%29.95 "Hg10 mi
11:00 pm
Wed, Dec 7
61 °FClear.5 mph72%29.98 "Hg10 mi
10:00 pm63 °FClear.10 mph73%29.95 "Hg10 mi
9:00 pm64 °FSunny.15 mph64%29.95 "Hg10 mi
8:00 pm68 °FSunny.15 mph60%29.95 "Hg10 mi
7:00 pm68 °FSunny.14 mph60%29.98 "Hg10 mi
6:00 pm72 °FSunny.14 mph53%29.98 "Hg10 mi
5:00 pm72 °FSunny.15 mph53%29.98 "Hg10 mi
4:00 pm70 °FPassing clouds.14 mph57%30.01 "HgN/A
3:00 pm70 °FPassing clouds.10 mph53%30.01 "HgN/A
2:00 pm70 °FPassing clouds.10 mph43%30.01 "HgN/A
1:00 pm68 °FPassing clouds.10 mph49%30.01 "HgN/A
12:00 pm66 °FSunny.10 mph52%30.01 "Hg10 mi
11:00 am63 °FPassing clouds.8 mph64%30.04 "HgN/A
10:00 am63 °FPassing clouds.8 mph56%30.04 "HgN/A
9:00 am57 °FSunny.3 mph77%30.04 "Hg10 mi
8:00 am52 °FSunny.3 mph94%30.04 "Hg10 mi
Weather by CustomWeather, © 2016

See weather overviewHow to use our weather pages